<?xml version="1.0" encoding="UTF-8" standalone="no" ?>
<gpx xmlns="http://www.topografix.com/GPX/1/1" xmlns:xsi="http://www.w3.org/2001/XMLSchema-instance" xsi:schemaLocation="http://www.topografix.com/GPX/1/1 http://www.topografix.com/GPX/1/1/gpx.xsd" version="1.1" creator="VisuGPX - https://www.visugpx.com">
  <metadata>
    <name>2026 Saint Calais à Brevainville</name>
    <desc><![CDATA[grp_trc:]]></desc>
  </metadata>
  <trk>
    <name><![CDATA[saint calais brevainville (inverser)]]></name>
    <cmt><![CDATA[10:35:38]]></cmt>
    <desc><![CDATA[comment ...</br>
----</br>
Groupe : CPHV mars 2026]]></desc>
    <trkseg>
      <trkpt lat="47.98369" lon="1.31201">
        <ele>101.3</ele>
        <time>2025-09-18T14:38:46Z</time>
      </trkpt>
      <trkpt lat="47.98306" lon="1.3127">
        <ele>101.7</ele>
        <time>2025-09-18T14:38:46Z</time>
      </trkpt>
      <trkpt lat="47.98184" lon="1.31344">
        <ele>102.6</ele>
        <time>2025-09-18T14:38:46Z</time>
      </trkpt>
      <trkpt lat="47.98053" lon="1.31398">
        <ele>101.6</ele>
        <time>2025-09-18T14:38:46Z</time>
      </trkpt>
      <trkpt lat="47.97757" lon="1.31404">
        <ele>102</ele>
        <time>2025-09-18T14:38:46Z</time>
      </trkpt>
      <trkpt lat="47.97697" lon="1.3143">
        <ele>102.5</ele>
        <time>2025-09-18T14:38:46Z</time>
      </trkpt>
      <trkpt lat="47.9756" lon="1.31512">
        <ele>102.4</ele>
        <time>2025-09-18T14:38:46Z</time>
      </trkpt>
      <trkpt lat="47.97526" lon="1.31557">
        <ele>102.9</ele>
        <time>2025-09-18T14:38:46Z</time>
      </trkpt>
      <trkpt lat="47.97526" lon="1.31595">
        <ele>102.9</ele>
        <time>2025-09-18T14:38:46Z</time>
      </trkpt>
      <trkpt lat="47.97601" lon="1.31705">
        <ele>106.4</ele>
        <time>2025-09-18T14:38:46Z</time>
      </trkpt>
      <trkpt lat="47.97624" lon="1.31821">
        <ele>111.2</ele>
        <time>2025-09-18T14:38:46Z</time>
      </trkpt>
      <trkpt lat="47.97658" lon="1.31881">
        <ele>111.8</ele>
        <time>2025-09-18T14:38:46Z</time>
      </trkpt>
      <trkpt lat="47.9782" lon="1.31977">
        <ele>116.9</ele>
        <time>2025-09-18T14:38:46Z</time>
      </trkpt>
      <trkpt lat="47.98028" lon="1.3223">
        <ele>124</ele>
        <time>2025-09-18T14:38:46Z</time>
      </trkpt>
      <trkpt lat="47.98034" lon="1.32243">
        <ele>124.2</ele>
        <time>2025-09-18T14:38:46Z</time>
      </trkpt>
      <trkpt lat="47.98121" lon="1.32791">
        <ele>122.7</ele>
        <time>2025-09-18T14:38:46Z</time>
      </trkpt>
      <trkpt lat="47.98118" lon="1.32899">
        <ele>123.3</ele>
        <time>2025-09-18T14:38:46Z</time>
      </trkpt>
      <trkpt lat="47.98142" lon="1.33836">
        <ele>128</ele>
        <time>2025-09-18T14:38:46Z</time>
      </trkpt>
      <trkpt lat="47.98228" lon="1.34112">
        <ele>127</ele>
        <time>2025-09-18T14:38:46Z</time>
      </trkpt>
      <trkpt lat="47.98234" lon="1.34124">
        <ele>127.2</ele>
        <time>2025-09-18T14:38:46Z</time>
      </trkpt>
      <trkpt lat="47.98227" lon="1.34178">
        <ele>127.2</ele>
        <time>2025-09-18T14:38:46Z</time>
      </trkpt>
      <trkpt lat="47.98139" lon="1.34382">
        <ele>125</ele>
        <time>2025-09-18T14:38:46Z</time>
      </trkpt>
      <trkpt lat="47.98131" lon="1.34389">
        <ele>125</ele>
        <time>2025-09-18T14:38:46Z</time>
      </trkpt>
      <trkpt lat="47.98115" lon="1.34409">
        <ele>124.4</ele>
        <time>2025-09-18T14:38:46Z</time>
      </trkpt>
      <trkpt lat="47.98095" lon="1.34471">
        <ele>121.1</ele>
        <time>2025-09-18T14:38:46Z</time>
      </trkpt>
      <trkpt lat="47.98085" lon="1.34534">
        <ele>113.4</ele>
        <time>2025-09-18T14:38:46Z</time>
      </trkpt>
      <trkpt lat="47.98089" lon="1.34625">
        <ele>107.4</ele>
        <time>2025-09-18T14:38:46Z</time>
      </trkpt>
      <trkpt lat="47.98094" lon="1.34636">
        <ele>107.1</ele>
        <time>2025-09-18T14:38:46Z</time>
      </trkpt>
      <trkpt lat="47.98177" lon="1.34711">
        <ele>107.4</ele>
        <time>2025-09-18T14:38:46Z</time>
      </trkpt>
      <trkpt lat="47.98087" lon="1.34844">
        <ele>106.5</ele>
        <time>2025-09-18T14:38:46Z</time>
      </trkpt>
      <trkpt lat="47.98082" lon="1.34864">
        <ele>107</ele>
        <time>2025-09-18T14:38:46Z</time>
      </trkpt>
      <trkpt lat="47.9808" lon="1.34955">
        <ele>107</ele>
        <time>2025-09-18T14:38:46Z</time>
      </trkpt>
      <trkpt lat="47.98074" lon="1.34968">
        <ele>107</ele>
        <time>2025-09-18T14:38:46Z</time>
      </trkpt>
      <trkpt lat="47.98044" lon="1.35007">
        <ele>107.7</ele>
        <time>2025-09-18T14:38:46Z</time>
      </trkpt>
      <trkpt lat="47.97746" lon="1.35126">
        <ele>118.5</ele>
        <time>2025-09-18T14:38:46Z</time>
      </trkpt>
      <trkpt lat="47.9742" lon="1.35035">
        <ele>120.1</ele>
        <time>2025-09-18T14:38:46Z</time>
      </trkpt>
      <trkpt lat="47.97277" lon="1.34939">
        <ele>119.8</ele>
        <time>2025-09-18T14:38:46Z</time>
      </trkpt>
      <trkpt lat="47.96997" lon="1.34804">
        <ele>122.9</ele>
        <time>2025-09-18T14:38:46Z</time>
      </trkpt>
      <trkpt lat="47.96989" lon="1.34792">
        <ele>122.7</ele>
        <time>2025-09-18T14:38:46Z</time>
      </trkpt>
      <trkpt lat="47.96901" lon="1.34559">
        <ele>119.3</ele>
        <time>2025-09-18T14:38:46Z</time>
      </trkpt>
      <trkpt lat="47.96899" lon="1.34545">
        <ele>118.9</ele>
        <time>2025-09-18T14:38:46Z</time>
      </trkpt>
      <trkpt lat="47.96902" lon="1.34468">
        <ele>117</ele>
        <time>2025-09-18T14:38:46Z</time>
      </trkpt>
      <trkpt lat="47.96915" lon="1.34411">
        <ele>118.2</ele>
        <time>2025-09-18T14:38:46Z</time>
      </trkpt>
      <trkpt lat="47.96934" lon="1.34413">
        <ele>118.8</ele>
        <time>2025-09-18T14:38:46Z</time>
      </trkpt>
      <trkpt lat="47.97297" lon="1.34314">
        <ele>108</ele>
        <time>2025-09-18T14:38:46Z</time>
      </trkpt>
      <trkpt lat="47.97292" lon="1.34269">
        <ele>108.3</ele>
        <time>2025-09-18T14:38:46Z</time>
      </trkpt>
      <trkpt lat="47.97293" lon="1.34233">
        <ele>107.3</ele>
        <time>2025-09-18T14:38:46Z</time>
      </trkpt>
      <trkpt lat="47.97319" lon="1.34227">
        <ele>105.2</ele>
        <time>2025-09-18T14:38:46Z</time>
      </trkpt>
      <trkpt lat="47.97293" lon="1.3407">
        <ele>104.7</ele>
        <time>2025-09-18T14:38:46Z</time>
      </trkpt>
      <trkpt lat="47.97288" lon="1.34034">
        <ele>104.6</ele>
        <time>2025-09-18T14:38:46Z</time>
      </trkpt>
      <trkpt lat="47.97277" lon="1.3397">
        <ele>105</ele>
        <time>2025-09-18T14:38:46Z</time>
      </trkpt>
      <trkpt lat="47.97272" lon="1.3393">
        <ele>104.6</ele>
        <time>2025-09-18T14:38:46Z</time>
      </trkpt>
      <trkpt lat="47.97266" lon="1.33885">
        <ele>104.4</ele>
        <time>2025-09-18T14:38:46Z</time>
      </trkpt>
      <trkpt lat="47.97254" lon="1.33839">
        <ele>104.9</ele>
        <time>2025-09-18T14:38:46Z</time>
      </trkpt>
      <trkpt lat="47.97233" lon="1.33456">
        <ele>104.6</ele>
        <time>2025-09-18T14:38:46Z</time>
      </trkpt>
      <trkpt lat="47.9701" lon="1.33494">
        <ele>112.4</ele>
        <time>2025-09-18T14:38:46Z</time>
      </trkpt>
      <trkpt lat="47.97012" lon="1.33467">
        <ele>111.7</ele>
        <time>2025-09-18T14:38:46Z</time>
      </trkpt>
      <trkpt lat="47.97193" lon="1.32986">
        <ele>116.1</ele>
        <time>2025-09-18T14:38:46Z</time>
      </trkpt>
      <trkpt lat="47.97237" lon="1.32803">
        <ele>117.9</ele>
        <time>2025-09-18T14:38:46Z</time>
      </trkpt>
      <trkpt lat="47.97246" lon="1.32651">
        <ele>117.3</ele>
        <time>2025-09-18T14:38:46Z</time>
      </trkpt>
      <trkpt lat="47.97151" lon="1.32607">
        <ele>121.6</ele>
        <time>2025-09-18T14:38:46Z</time>
      </trkpt>
      <trkpt lat="47.97127" lon="1.32575">
        <ele>122.4</ele>
        <time>2025-09-18T14:38:46Z</time>
      </trkpt>
      <trkpt lat="47.97111" lon="1.32394">
        <ele>121.2</ele>
        <time>2025-09-18T14:38:46Z</time>
      </trkpt>
      <trkpt lat="47.97103" lon="1.32379">
        <ele>121.5</ele>
        <time>2025-09-18T14:38:46Z</time>
      </trkpt>
      <trkpt lat="47.96906" lon="1.32145">
        <ele>121.2</ele>
        <time>2025-09-18T14:38:46Z</time>
      </trkpt>
      <trkpt lat="47.96896" lon="1.32138">
        <ele>121</ele>
        <time>2025-09-18T14:38:46Z</time>
      </trkpt>
      <trkpt lat="47.96778" lon="1.32108">
        <ele>119.9</ele>
        <time>2025-09-18T14:38:46Z</time>
      </trkpt>
      <trkpt lat="47.964" lon="1.31936">
        <ele>120.6</ele>
        <time>2025-09-18T14:38:46Z</time>
      </trkpt>
      <trkpt lat="47.96277" lon="1.31919">
        <ele>123.1</ele>
        <time>2025-09-18T14:38:46Z</time>
      </trkpt>
      <trkpt lat="47.96157" lon="1.31879">
        <ele>120.4</ele>
        <time>2025-09-18T14:38:46Z</time>
      </trkpt>
      <trkpt lat="47.96062" lon="1.31741">
        <ele>116.5</ele>
        <time>2025-09-18T14:38:46Z</time>
      </trkpt>
      <trkpt lat="47.96009" lon="1.31711">
        <ele>116.9</ele>
        <time>2025-09-18T14:38:46Z</time>
      </trkpt>
      <trkpt lat="47.95953" lon="1.31658">
        <ele>117</ele>
        <time>2025-09-18T14:38:46Z</time>
      </trkpt>
      <trkpt lat="47.95838" lon="1.31516">
        <ele>120.8</ele>
        <time>2025-09-18T14:38:46Z</time>
      </trkpt>
      <trkpt lat="47.95938" lon="1.31207">
        <ele>122.6</ele>
        <time>2025-09-18T14:38:46Z</time>
      </trkpt>
      <trkpt lat="47.95994" lon="1.31128">
        <ele>125.7</ele>
        <time>2025-09-18T14:38:46Z</time>
      </trkpt>
      <trkpt lat="47.96146" lon="1.30943">
        <ele>127</ele>
        <time>2025-09-18T14:38:46Z</time>
      </trkpt>
      <trkpt lat="47.96156" lon="1.30916">
        <ele>126.6</ele>
        <time>2025-09-18T14:38:46Z</time>
      </trkpt>
      <trkpt lat="47.962" lon="1.30781">
        <ele>128</ele>
        <time>2025-09-18T14:38:46Z</time>
      </trkpt>
      <trkpt lat="47.96089" lon="1.30532">
        <ele>128</ele>
        <time>2025-09-18T14:38:46Z</time>
      </trkpt>
      <trkpt lat="47.95972" lon="1.30248">
        <ele>129</ele>
        <time>2025-09-18T14:38:46Z</time>
      </trkpt>
      <trkpt lat="47.95604" lon="1.29601">
        <ele>131.1</ele>
        <time>2025-09-18T14:38:46Z</time>
      </trkpt>
      <trkpt lat="47.95537" lon="1.29292">
        <ele>130.2</ele>
        <time>2025-09-18T14:38:46Z</time>
      </trkpt>
      <trkpt lat="47.95551" lon="1.29215">
        <ele>128.8</ele>
        <time>2025-09-18T14:38:46Z</time>
      </trkpt>
      <trkpt lat="47.95551" lon="1.29128">
        <ele>128</ele>
        <time>2025-09-18T14:38:46Z</time>
      </trkpt>
      <trkpt lat="47.95515" lon="1.2913">
        <ele>128.5</ele>
        <time>2025-09-18T14:38:46Z</time>
      </trkpt>
      <trkpt lat="47.95411" lon="1.29089">
        <ele>129</ele>
        <time>2025-09-18T14:38:46Z</time>
      </trkpt>
      <trkpt lat="47.95344" lon="1.29023">
        <ele>128.6</ele>
        <time>2025-09-18T14:38:46Z</time>
      </trkpt>
      <trkpt lat="47.9514" lon="1.28737">
        <ele>132</ele>
        <time>2025-09-18T14:38:46Z</time>
      </trkpt>
      <trkpt lat="47.95143" lon="1.28723">
        <ele>132</ele>
        <time>2025-09-18T14:38:46Z</time>
      </trkpt>
      <trkpt lat="47.95158" lon="1.28705">
        <ele>132</ele>
        <time>2025-09-18T14:38:46Z</time>
      </trkpt>
      <trkpt lat="47.95243" lon="1.28529">
        <ele>133</ele>
        <time>2025-09-18T14:38:46Z</time>
      </trkpt>
      <trkpt lat="47.953" lon="1.28467">
        <ele>132.8</ele>
        <time>2025-09-18T14:38:46Z</time>
      </trkpt>
      <trkpt lat="47.9531" lon="1.2845">
        <ele>132.3</ele>
        <time>2025-09-18T14:38:46Z</time>
      </trkpt>
      <trkpt lat="47.95303" lon="1.28441">
        <ele>132</ele>
        <time>2025-09-18T14:38:46Z</time>
      </trkpt>
    </trkseg>
  </trk>
</gpx>